Location: Unspecified
(47.1700°N, 0.0000°E)
Time: 16:05:42
(UTC+00:00)

NO-84 - Visible Passes

Search period start: 17 May 2021 00:00
Search period end: 27 May 2021 00:00
Orbit: 311 x 421 km, 55.0° (Epoch: 12 May)

Date Brightness Start Highest point End Pass type
(mag) Time Alt. Az. Time Alt. Az. Time Alt. Az.
17 May ? 01:35:15 19° WNW 01:36:32 26° NNW 01:39:13 10° NE visible
17 May ? 03:10:16 10° NW 03:12:36 19° N 03:15:02 10° NE visible
18 May ? 00:32:41 34° NNE 00:32:41 34° NNE 00:34:53 10° NE visible
18 May ? 02:05:34 10° NW 02:07:53 19° N 02:10:15 10° NE visible
18 May ? 03:41:18 10° NW 03:43:58 25° NNE 03:46:42 10° ENE visible
18 May ? 23:29:58 14° ENE 23:29:58 14° ENE 23:30:30 10° ENE visible
19 May ? 01:01:48 17° NW 01:03:08 23° NNW 01:05:43 10° NE visible
19 May ? 02:36:52 10° NW 02:39:14 20° N 02:41:39 10° ENE visible
19 May ? 23:58:56 33° N 23:58:56 33° N 00:01:18 10° NE visible
20 May ? 01:32:11 10° NW 01:34:26 19° N 01:36:44 10° NE visible
20 May ? 03:07:45 10° NW 03:10:28 27° NNE 03:13:17 10° E visible
20 May ? 22:55:47 20° NE 22:55:47 20° NE 22:56:52 10° NE visible
21 May ? 00:27:34 12° WNW 00:29:36 21° NNW 00:32:04 10° NE visible
21 May ? 02:03:19 10° NW 02:05:42 20° N 02:08:09 10° ENE visible
21 May ? 03:38:26 10° NW 03:41:31 53° NNE 03:44:43 10° ESE visible
21 May ? 21:52:06 11° ENE 21:52:06 11° ENE 21:52:13 10° ENE visible
21 May ? 23:23:49 24° WNW 23:24:50 31° NNW 23:27:34 10° NE visible
22 May ? 00:58:38 10° NW 01:00:49 18° N 01:03:05 10° NE visible
22 May ? 02:34:03 10° NW 02:36:50 30° NNE 02:39:42 10° E visible
22 May ? 20:45:54 14° ESE 20:45:54 14° ESE 20:46:59 10° E visible
22 May ? 22:17:21 10° WSW 22:20:08 59° NNW 22:23:04 10° NE visible
22 May ? 23:53:39 10° WNW 23:55:56 20° N 23:58:16 10° NE visible
23 May ? 01:29:35 10° NW 01:32:00 21° NNE 01:34:30 10° ENE visible
23 May ? 03:04:39 10° NW 03:07:45 64° NNE 03:10:57 10° ESE visible
23 May ? 21:12:52 10° SW 21:15:36 52° SE 21:18:26 10° ENE visible
23 May ? 22:48:32 10° W 22:51:03 27° NNW 22:53:40 10° NE visible
24 May ? 00:24:54 10° NW 00:27:04 18° N 00:29:19 10° NE visible
24 May ? 02:00:12 10° NW 02:03:02 33° NNE 02:05:57 10° E visible
24 May ? 03:35:26 10° WNW 03:38:25 42° SW 03:41:30 10° SSE visible
24 May ? 21:43:31 10° WSW 21:46:15 48° NNW 21:49:06 10° NE visible
24 May ? 23:19:55 10° NW 23:22:06 19° N 23:24:21 10° NE visible
25 May ? 00:55:42 10° NW 00:58:09 22° NNE 01:00:42 10° ENE visible
25 May ? 02:30:44 10° NW 02:33:49 79° NNE 02:37:02 10° ESE visible
25 May ? 20:38:50 10° SW 20:41:35 69° SE 20:44:27 10° ENE visible
25 May ? 22:14:43 10° WNW 22:17:07 24° NNW 22:19:38 10° NE visible
25 May ? 23:51:00 10° NW 23:53:10 18° N 23:55:24 10° NE visible
26 May ? 01:26:12 10° NW 01:29:04 38° NNE 01:32:03 10° E visible
26 May ? 03:01:30 10° WNW 03:04:21 33° SW 03:07:18 10° SSE visible
26 May ? 21:09:35 10° W 21:12:14 39° NNW 21:15:00 10° NE visible
26 May ? 22:46:00 10° NW 22:48:07 18° N 22:50:17 10° NE visible
